Airfield :
LOGIN :

Register | Disclaimer

   EN    FR    IT 

 










Legend :    VFR   Marginal VFR   IFR   Intensive IFR   Very Intensive IFR
Visi :
Ceiling :
>= 8 km
>= 3000ft
5 to 8 km
1000 to 3000 ft
1500m to 5 km
500 to 1000 ft
800 to 1500m
200 to 500 ft
< 800m
< 200 ft
Symbols :   Thunderstorms  Fog  Heavy snow  Heavy precipitations  Wind > 20 kt
SIGMETs :     Misc.  Thunderstorms  Icing  Turbulence  Mountain Waves  Volcanic Ashes







- Airport Elevation : 472 ft
- IATA code : GME


UMGG - Gomel

CURRENT METAR :
  • 220300Z 29004MPS CAVOK 14/12 Q1019 R28/D NOSIG

EXPIRED METARs :
  • 220200Z 30004MPS CAVOK 14/12 Q1018 R28/D NOSIG
  • 220100Z 30004MPS CAVOK 15/12 Q1018 R28/CLRD// NOSIG

TAF TAF UMGG
Valid from the 22 at 00:00 until the 23 at 00:00 UTC


212300Z 2200/2224 31005MPS 9999 BKN020
TEMPO 2200/2205 2000 BR BKN005
BECMG 2205/2207 34006MPS
TEMPO 2218/2224 VRB02MPS 1200 BR BKN004
No reported NOTAMs for that airfield.



MET'MAP, your aeronautical weather chart ! - Copyright ORBIFLY December 2007 - Disclaimer

ORBIFLY MET'MAP TEAM :

Programming & Development : Alexandra Zaïnal
Concept & Development : Baudouin d'Aumeries
Co-Development & Prog : Marc-Olivier Méhu
Technical & hardware support : Manuel Goepfert

Contact : metmap@orbifly.com




SOURCES & CREDITS :

   NOAA